STARLINK-34497, 64696

Orbit data source: Space-Track

STARLINK-34497, 64696 is a payload satellite owned by SpaceX/Seattle (US) in LEO that was launched on Sat, 28 Jun 2025 UTC via an FALCON 9 launch vehicle from the Air Force Western Test Range (AFWTR). Payload-class satellites include a variety of spacecraft equipped with specific instruments for various scientific and technological missions. These include communications satellites like Starlink; space stations such as the ISS; scientific satellites like the Hubble; Earth observation satellites from companies like Planet Labs, Umbra, and HawkEye 360; GPS; miniature CubeSats for education and research; and military/defense satellites.

Loading next visibility...
Identifier
64696, 2025-142A
Orbit
LEO
Last TLE update
8 hours ago
Origin
Manufacturer
SpaceX/Seattle
Mission
Operational spacecraft
Bus & Motor
STARLINK V2MO, Unknown motor
Mass
575 kg wet, ~530 kg dry
Launch date (UTC)
2025-06-28 (1 week ago)
Launch vehicle
FALCON 9
Launch site
Air Force Western Test Range (AFWTR)
Object type
Payload
Rocket body
Debris
Shape & HBR
Unknown
Radar Cross Section
RCS unknown

Expand to show TLE details & history

TLE from 8 hours ago
0 STARLINK-34497
1 64696U 25142A   25186.91668981 -.01043407  00000-0 -45054-2 0  9996
2 64696  69.9956 230.3907 0003755 274.6213 143.1312 15.87084584  2340
Epoch: 2025-07-05T22:00Z
TLE epoch observation values (Epoch: 2025-07-05T22:00:01.999Z)
Latitude
52.77219°
Longitude
4.68778°
Altitude
320.491 km
Speed
7.72 km/s
True Right ascension
17h 15m 22s
True Declination
52° 35' 44"
Sunlit
Object was in daylight at epoch
Visualization orbit readout
Latitude
38.32867°
Longitude
138.65562°
Altitude
319.083 km
Speed
7.72 km/s
Apparent Right ascension
03h 57m 16s
Apparent Declination
0° 23' 21"
Sunlit
Object is in daylight
Visualization observer readout
Local Sidereal Time
17:51:48
Azimuth
40.135° NE
Elevation
-41.975°
Doppler factor
1
Orbital elements
Apogee altitude
310.84 km
Perigee altitude
305.819 km
Semi-major axis
6,686.467 km
Eccentricity
0.00038
Inclination
69.9956°
RAAN
230.3907°
Arg. of periapsis
274.6213°
True anomaly
Unknown
Mean anomaly
143.1312°
Eccentric anomaly
Unknown
Mean motion
3.96961 °/min
Orbital period
90.69 mins
BSTAR
-0.0045054
Loading maneuver chart data...
Loading SW <> Apogee altitude chart data...
Loading historical data...
Loading historical data...
Loading historical data...
Loading historical data...
Loading historical data...
Loading historical data...
Loading historical data...

STARLINK-34497 Visibility forecast

Observer location: undefined°, undefined°

Span
Click to sort rows by Start time (UTC) header in descending order
Start Az.
Max El. time (UTC)
Max El. Az.
Max El.
End time (UTC)
End Az.
4 mins2025-07-07 04:11:23.487Z197.495° SSW2025-07-07 04:13:23.487Z49.961° ENE41.583°2025-07-07 04:15:23.487Z27.687° NE
|